Weather History for KSAW - June, 2012

Change the Weather History Date:

Tuesday, June 5, 2012

  Actual Average (KMQT) Record (KMQT)
Temperature  
Mean Temperature 56 °F 57 °F  
Max Temperature 71 °F 69 °F 90 °F (1988)
Min Temperature 41 °F 46 °F 32 °F (1998)
Degree Days  
Heating Degree Days 9 8  
Month to date heating degree days 45  
Since 1 June heating degree days 45  
Since 1 July heating degree days 9197  
Cooling Degree Days 0 1  
Month to date cooling degree days 5  
Year to date cooling degree days 17  
Since 1 June cooling degree days 5  
Growing Degree Days 6 (Base 50)    
Moisture  
Dew Point 43 °F    
Average Humidity 68    
Maximum Humidity 93    
Minimum Humidity 31    
Precipitation  
Precipitation 0.00 in 0.11 in 1.62 in (1971)
Month to date precipitation 0.53  
Year to date precipitation 14.17  
Snow  
Snow 0.00 in 0.00 in - ()
Month to date snowfall 0.0  
Since 1 June snowfall 0.0  
Since 1 July snowfall 203.3  
Snow Depth -    
Sea Level Pressure  
Sea Level Pressure 30.06 in    
Wind  
Wind Speed 2 mph (ENE)    
Max Wind Speed 10 mph    
Max Gust Speed 12 mph    
Visibility 10 miles    
Events      
T = Trace of Precipitation, MM = Missing Value Source: NWS Daily Summary

Daily Weather History Graph

Daily Weather History Graph

Search for Another Location

Airport or City:

Trip Planner

Search our weather history database for the weather conditions in past years. The results will help you decide how hot, cold, wet, or windy it might be!

Date:

Astronomy

Jun. 05, 2012 Rise Set
Actual Time 5:58 AM EDT 9:37 PM EDT
Civil Twilight 5:20 AM EDT 10:16 PM EDT
Nautical Twilight 4:29 AM EDT 11:07 PM EDT
Astronomical Twilight 3:19 AM EDT 12:17 AM EDT
Moon 10:59 PM EDT (6/5) 7:11 AM EDT (6/5)
Length of Visible Light 16h 55m
Length of Day
15h 39m
Full, 98% of the Moon is Illuminated
Jun 5
Full
Jun 11
Last Quarter
Jun 19
New
Jun 26
First Quarter
Jul 3
Full

Hourly Weather History & Observations

Time (EDT) Temp. Windchill Dew Point Humidity Pressure Visibility Wind Dir Wind Speed Gust Speed Precip Events Conditions
12:16 AM 48.7 °F - 43.7 °F 83% 30.02 in 10.0 mi NNW 3.5 mph - N/A   Clear
12:36 AM 49.1 °F - 43.7 °F 82% 30.03 in 10.0 mi NNE 3.5 mph - N/A   Clear
12:57 AM 49.3 °F - 43.9 °F 82% 30.03 in 10.0 mi Calm Calm - N/A   Clear
1:16 AM 48.2 °F - 43.2 °F 83% 30.03 in 10.0 mi Calm Calm - N/A   Clear
1:37 AM 47.5 °F - 42.6 °F 83% 30.03 in 10.0 mi Calm Calm - N/A   Clear
1:57 AM 44.8 °F 43.3 °F 40.8 °F 86% 30.03 in 10.0 mi NNE 3.5 mph - N/A   Clear
2:16 AM 49.8 °F - 43.7 °F 79% 30.03 in 10.0 mi East 3.5 mph - N/A   Clear
2:37 AM 47.5 °F - 41.4 °F 79% 30.04 in 10.0 mi Calm Calm - N/A   Clear
2:56 AM 44.4 °F - 39.9 °F 84% 30.04 in 10.0 mi Calm Calm - N/A   Clear
3:16 AM 44.6 °F - 40.8 °F 87% 30.03 in 10.0 mi Calm Calm - N/A   Clear
3:37 AM 44.2 °F - 39.9 °F 85% 30.03 in 10.0 mi Calm Calm - N/A   Clear
3:56 AM 44.4 °F - 39.4 °F 82% 30.03 in 10.0 mi Calm Calm - N/A   Clear
4:16 AM 44.4 °F - 39.2 °F 82% 30.03 in 10.0 mi Calm Calm - N/A   Clear
4:37 AM 42.4 °F - 38.3 °F 85% 30.04 in 10.0 mi Calm Calm - N/A   Clear
4:56 AM 41.9 °F - 38.3 °F 87% 30.04 in 10.0 mi Calm Calm - N/A   Clear
5:17 AM 42.6 °F - 38.5 °F 85% 30.05 in 10.0 mi Calm Calm - N/A   Scattered Clouds
5:37 AM 41.9 °F - 37.6 °F 85% 30.05 in 10.0 mi Calm Calm - N/A   Scattered Clouds
5:56 AM 42.1 °F - 38.7 °F 88% 30.06 in 10.0 mi Calm Calm - N/A   Clear
6:50 AM 42.8 °F - 41.0 °F 93% 30.09 in 10.0 mi Calm Calm - N/A   Mostly Cloudy
7:50 AM 50.0 °F - 44.6 °F 82% 30.10 in 10.0 mi Calm Calm - N/A   Mostly Cloudy
8:55 AM 57.2 °F - 48.2 °F 72% 30.11 in 10.0 mi SSE 4.6 mph - N/A   Mostly Cloudy
9:50 AM 60.8 °F - 48.2 °F 63% 30.11 in 10.0 mi South 6.9 mph - N/A   Mostly Cloudy
10:50 AM 64.4 °F - 48.2 °F 56% 30.11 in 10.0 mi SE 3.5 mph - N/A   Mostly Cloudy
11:50 AM 66.2 °F - 46.4 °F 49% 30.11 in 10.0 mi SE 6.9 mph 11.5 mph N/A   Mostly Cloudy
12:55 PM 68.0 °F - 46.4 °F 46% 30.11 in 10.0 mi Calm Calm - N/A   Mostly Cloudy
1:55 PM 69.8 °F - 42.8 °F 38% 30.10 in 10.0 mi SSE 8.1 mph - N/A   Mostly Cloudy
2:50 PM 68.0 °F - 39.2 °F 35% 30.09 in 10.0 mi Calm Calm - N/A   Mostly Cloudy
3:50 PM 71.6 °F - 41.0 °F 33% 30.08 in 10.0 mi ENE 8.1 mph - N/A   Mostly Cloudy
4:50 PM 71.6 °F - 39.2 °F 31% 30.06 in 10.0 mi Calm Calm - N/A   Mostly Cloudy
5:50 PM 71.6 °F - 44.6 °F 38% 30.06 in 10.0 mi ENE 6.9 mph - N/A   Scattered Clouds
6:50 PM 71.6 °F - 44.6 °F 38% 30.06 in 10.0 mi NE 8.1 mph - N/A   Clear
7:50 PM 69.8 °F - 44.6 °F 40% 30.05 in 10.0 mi ENE 10.4 mph - N/A   Clear
8:50 PM 68.0 °F - 37.4 °F 33% 30.06 in 10.0 mi SSW 6.9 mph - N/A   Clear
9:50 PM 59.0 °F - 46.4 °F 63% 30.07 in 10.0 mi North 3.5 mph - N/A   Clear
10:17 PM 58.3 °F - 45.5 °F 62% 30.08 in 10.0 mi Calm Calm - N/A   Clear
10:36 PM 56.7 °F - 46.2 °F 68% 30.08 in 10.0 mi Calm Calm - N/A   Clear
10:57 PM 54.9 °F - 45.5 °F 71% 30.08 in 10.0 mi Calm Calm - N/A   Clear
11:16 PM 52.7 °F - 43.7 °F 71% 30.09 in 10.0 mi North 3.5 mph - N/A   Clear
11:36 PM 52.7 °F - 44.1 °F 72% 30.09 in 10.0 mi Calm Calm - N/A   Clear
11:57 PM 51.1 °F - 43.7 °F 76% 30.09 in 10.0 mi Calm Calm - N/A   Clear